Location: Unspecified
(41.5000°N, 0.0000°E)
Time: 00:32:26
(UTC+00:00)

Vanguard 1 - All Passes

Search period start: 17 June 2019 00:00
Search period end: 27 June 2019 00:00
Orbit: 654 x 3829 km, 34.2° (Epoch: 15 June)

Date Brightness Start Highest point End Pass type
(mag) Time Alt. Az. Time Alt. Az. Time Alt. Az.
17 Jun - 01:45:25 10° SSW 01:58:10 24° SSE 02:06:53 10° ESE visible
17 Jun - 04:07:15 10° SW 04:20:32 43° SSE 04:28:03 10° E daylight
17 Jun - 06:31:58 10° WSW 06:41:32 50° S 06:47:07 10° ESE daylight
17 Jun - 08:55:59 10° W 09:01:05 25° SSW 09:04:58 10° SSE daylight
17 Jun - 23:52:41 10° SSE 23:56:09 11° SE 23:59:22 10° SE visible
18 Jun - 02:04:53 10° SSW 02:19:23 30° SSE 02:28:39 10° E visible
18 Jun - 04:28:15 10° WSW 04:41:38 49° S 04:49:02 10° E daylight
18 Jun - 06:53:19 10° W 07:02:27 48° S 07:07:52 10° ESE daylight
18 Jun - 09:17:39 10° WSW 09:21:42 18° SSW 09:24:59 10° SSE daylight
19 Jun - 00:06:57 10° S 00:17:23 16° SE 00:25:44 10° ESE visible
19 Jun - 02:24:57 10° SW 02:40:36 37° SSE 02:50:04 10° E visible
19 Jun - 04:49:27 10° WSW 05:02:43 53° S 05:09:56 10° E daylight
19 Jun - 07:14:43 10° W 07:23:18 43° SSW 07:28:32 10° SE daylight
19 Jun - 09:40:01 10° WSW 09:42:13 12° SW 09:44:12 10° SSW daylight
20 Jun - 00:24:42 10° S 00:38:37 23° SSE 00:48:49 10° ESE visible
20 Jun - 02:45:26 10° SW 03:01:48 44° SSE 03:11:15 10° E visible
20 Jun - 05:10:49 10° WSW 05:23:46 56° S 05:30:48 10° ESE daylight
20 Jun - 07:36:11 10° W 07:44:04 36° SSW 07:49:04 10° SE daylight
21 Jun - 00:43:39 10° SSW 00:59:49 29° SSE 01:10:57 10° E visible
21 Jun - 03:06:17 10° SW 03:22:59 50° SSE 03:32:19 10° E visible
21 Jun - 05:32:16 10° WSW 05:44:47 56° S 05:51:36 10° ESE daylight
21 Jun - 07:57:43 10° W 08:04:43 29° SSW 08:09:25 10° SSE daylight
21 Jun - 22:48:26 10° SSE 22:57:24 14° SE 23:05:14 10° ESE visible
22 Jun - 01:03:19 10° SSW 01:21:02 36° SSE 01:32:37 10° E visible
22 Jun - 03:27:24 10° WSW 03:44:10 55° S 03:53:18 10° E visible
22 Jun - 05:53:46 10° W 06:05:45 53° SSW 06:12:22 10° ESE daylight
22 Jun - 08:19:28 10° W 08:25:17 22° SW 08:29:28 10° SSE daylight
22 Jun - 23:04:50 10° S 23:18:31 20° SE 23:29:36 10° ESE visible
23 Jun - 01:23:29 10° SW 01:42:15 43° SSE 01:53:59 10° E visible
23 Jun - 03:48:43 10° WSW 04:05:19 59° S 04:14:14 10° E visible
23 Jun - 06:15:19 10° W 06:26:39 48° SSW 06:33:01 10° SE daylight
23 Jun - 08:41:40 10° WSW 08:45:43 15° SW 08:48:58 10° S daylight
23 Jun - 23:23:04 10° S 23:39:38 26° SE 23:52:21 10° E visible
24 Jun - 01:44:04 10° SW 02:03:30 49° SSE 02:15:11 10° E visible
24 Jun - 04:10:12 10° WSW 04:26:27 61° S 04:35:07 10° ESE daylight
24 Jun - 06:36:54 10° W 06:47:26 42° SSW 06:53:33 10° SE daylight
24 Jun - 21:34:49 10° SE 21:37:10 10° SE 21:39:29 10° SE visible
24 Jun - 23:42:13 10° SSW 00:00:46 33° SSE 00:14:22 10° E visible
25 Jun - 02:04:59 10° SW 02:24:44 55° SSE 02:36:16 10° E visible
25 Jun - 04:31:46 10° W 04:47:32 61° S 04:55:57 10° ESE daylight
25 Jun - 06:58:33 10° W 07:08:06 34° SSW 07:13:55 10° SSE daylight
25 Jun - 21:46:33 10° SSE 21:58:08 16° SE 22:08:33 10° ESE visible
26 Jun - 00:01:59 10° SSW 00:21:57 40° SSE 00:36:00 10° E visible
26 Jun - 02:26:10 10° WSW 02:45:59 60° S 02:57:16 10° E visible
26 Jun - 04:53:23 10° W 05:08:35 58° SSW 05:16:43 10° ESE daylight
26 Jun - 07:20:22 10° W 07:28:38 26° SW 07:34:01 10° SSE daylight
26 Jun - 22:03:38 10° S 22:19:05 23° SE 22:32:26 10° E visible
